[[{"header":{"parameterUnit":"m.s-1","parameterCategory":1,"la1":30.2992,"la2":30.254,"lo1":-89.0895,"lo2":-89.0443,"dy":0.0025,"dx":0.0025,"nx":19,"ny":19,"refTime":"2026-05-18T03:00:00:Z","depth":0,"parameterNumber":2,"parameterNumberName":"U-component_of_WINDS"},"data":[0,0,0,-3.6909,-3.6912,-3.7086,-3.7087,-3.7312,-3.7314,0,0,0,0,0,0,0,0,0,0,0,-3.6858,-3.686,-3.6908,-3.6913,-3.7086,-3.7087,-3.7312,-3.7314,0,0,0,0,0,0,0,0,0,0,0,-3.6857,-3.6859,-3.6861,-3.6913,-3.7086,-3.7087,-3.7311,-3.7179,0,0,0,0,0,0,0,0,0,0,-3.701,-3.6964,-3.6859,-3.6861,-3.6914,-3.7086,-3.7087,-3.7173,-3.7187,-3.7234,0,-3.7275,0,-3.7298,-3.7329,-3.733,0,0,0,-3.6912,-3.6952,-3.6998,-3.6861,-3.6916,-3.7086,-3.7008,-3.7181,-3.7198,-3.7254,-3.7279,-3.7287,-3.7302,-3.7331,-3.7332,-3.7601,-3.7602,0,0,-3.6903,-3.689,-3.6986,-3.7009,-3.6981,-3.7002,-3.7013,-3.7191,-3.7218,-3.7279,-3.7292,-3.7306,-3.7332,-3.7334,-3.76,-3.7601,0,0,0,-3.6875,-3.6883,-3.6925,-3.6999,-3.703,-3.7007,-3.702,-3.721,-3.7224,-3.7295,-3.7308,-3.7333,-3.7336,-3.7598,-3.76,-3.765,0,0,0,-3.6869,-3.6867,-3.6921,-3.6915,-3.7027,-3.7122,-3.7035,-3.7212,-3.7232,-3.7307,-3.7334,-3.7338,-3.7597,-3.76,-3.7646,-3.7676,0,0,0,-3.6846,-3.6865,-3.689,-3.6914,-3.6988,-3.7119,-3.7144,-3.7217,-3.7241,-3.733,-3.7339,-3.7596,-3.7599,-3.7642,-3.7669,-3.7742,0,0,0,-3.6818,-3.6933,-3.6891,-3.7024,-3.6986,-3.7149,-3.7143,-3.7266,-3.7348,-3.7335,-3.7597,-3.76,-3.7641,-3.7665,-3.7738,-3.78,-3.7825,0,0,-3.6955,-3.6949,-3.7028,-3.6996,-3.7162,-3.7124,-3.7298,-3.7386,-3.7407,-3.7535,-3.7542,-3.7647,-3.7669,-3.7741,-3.7972,-3.7991,0,0,0,-3.7067,-3.7124,-3.7171,-3.7249,-3.7319,-3.7381,-3.7443,-3.7476,-3.7585,-3.747,-3.7694,-3.7708,-3.775,-3.7781,-3.7798,-3.7835,-3.7614,-3.7614,-3.7613,-3.7243,-3.7263,-3.7395,-3.7436,-3.7512,-3.7575,-3.7638,-3.7693,-3.7692,-3.7745,-3.7782,-3.792,-3.7955,-3.7967,-3.8006,-3.7818,-3.7818,-3.7818,-3.7818,-3.7445,-3.7528,-3.7523,-3.765,-3.767,-3.7778,-3.7844,-3.7839,-3.7942,-3.7893,-3.7932,-3.7875,-3.7988,-3.8023,-3.7822,-3.7822,-3.7821,-3.7821,-3.7821,-3.7561,-3.7604,-3.7642,-3.7756,-3.7842,-3.788,-3.7979,-3.7995,-3.801,-3.8049,-3.809,-3.8089,-3.8089,-3.8068,-3.8068,-3.8069,-3.8069,-3.8069,-3.807,-3.7666,-3.7707,-3.7787,-3.7871,-3.7923,-3.7993,-3.8059,-3.8111,-3.8172,-3.8176,-3.8176,-3.8169,-3.7996,-3.7951,-3.8077,-3.8076,-3.8075,-3.8074,-3.8074,-3.7861,-3.7819,-3.7944,-3.7996,-3.8095,-3.8179,-3.8199,-3.8303,-3.8348,-3.8397,-3.8382,-3.8252,-3.8246,-3.8233,-3.8196,-3.8377,-3.8377,-3.8378,-3.8378,-3.7958,-3.7957,-3.8087,-3.8169,-3.8251,-3.8281,-3.8422,-3.8475,-3.8522,-3.8552,-3.8528,-3.8481,-3.8467,-3.847,-3.8452,-3.8417,-3.8651,-3.8652,-3.8652,-3.8079,-3.8086,-3.8202,-3.8247,-3.8327,-3.8394,-3.8527,-3.8622,-3.8668,-3.8663,-3.8575,-3.8564,-3.8488,-3.8462,-3.8454,-3.8425,-3.8362,0,0]},{"header":{"parameterUnit":"m.s-1","parameterCategory":1,"la1":30.2992,"la2":30.254,"lo1":-89.0895,"lo2":-89.0443,"dy":0.0025,"dx":0.0025,"nx":19,"ny":19,"refTime":"2026-05-18T03:00:00:Z","depth":0,"parameterNumber":3,"parameterNumberName":"V-component_of_WINDS"},"data":[0,0,0,2.7655,2.7656,2.7721,2.7721,2.7808,2.7808,0,0,0,0,0,0,0,0,0,0,0,2.7639,2.764,2.7655,2.7657,2.7721,2.7721,2.7807,2.7808,0,0,0,0,0,0,0,0,0,0,0,2.7639,2.764,2.764,2.7657,2.7721,2.7721,2.7807,2.7757,0,0,0,0,0,0,0,0,0,0,2.7693,2.7682,2.7639,2.764,2.7657,2.7721,2.7721,2.7754,2.776,2.778,0,2.78,0,2.7806,2.7815,2.7815,0,0,0,2.7654,2.7677,2.7692,2.7641,2.7658,2.7721,2.7691,2.7757,2.7764,2.7788,2.7801,2.7804,2.7807,2.7815,2.7816,2.7945,2.7946,0,0,2.765,2.7652,2.7688,2.7697,2.7688,2.7689,2.7693,2.7761,2.7776,2.7802,2.7806,2.7809,2.7816,2.7816,2.7944,2.7945,0,0,0,2.7642,2.765,2.7663,2.7693,2.7705,2.7691,2.7696,2.7773,2.7777,2.7807,2.781,2.7816,2.7817,2.7944,2.7945,2.7984,0,0,0,2.7639,2.7645,2.7661,2.7663,2.7703,2.774,2.7705,2.7772,2.778,2.7809,2.7816,2.7818,2.7943,2.7944,2.7981,2.8002,0,0,0,2.7634,2.7644,2.7655,2.7663,2.7691,2.7738,2.7746,2.7774,2.7781,2.7815,2.7819,2.7942,2.7944,2.7979,2.7998,2.8038,0,0,0,2.7628,2.7687,2.7655,2.7723,2.769,2.7763,2.7746,2.7799,2.7833,2.7817,2.7943,2.7945,2.7978,2.7995,2.8035,2.8072,2.8087,0,0,2.7704,2.7697,2.7736,2.771,2.7788,2.7753,2.7837,2.7865,2.7865,2.7918,2.7921,2.7982,2.7998,2.8037,2.8172,2.8185,0,0,0,2.7761,2.779,2.781,2.7843,2.7867,2.7889,2.7905,2.7915,2.7961,2.7893,2.8007,2.8016,2.8039,2.8057,2.8067,2.8087,2.7953,2.7953,2.7952,2.7872,2.7871,2.7937,2.7944,2.7976,2.7992,2.8018,2.8035,2.8023,2.805,2.8066,2.8148,2.8169,2.8177,2.8198,2.8085,2.8085,2.8085,2.8085,2.7984,2.8025,2.801,2.8069,2.8067,2.8116,2.8134,2.8125,2.817,2.8136,2.8156,2.812,2.819,2.8209,2.8088,2.8088,2.8087,2.8087,2.8087,2.8056,2.8076,2.8089,2.8138,2.8175,2.818,2.8225,2.8221,2.8218,2.8238,2.8255,2.8254,2.8253,2.8246,2.8246,2.8247,2.8247,2.8247,2.8247,2.8127,2.814,2.8179,2.8211,2.8232,2.826,2.8277,2.8298,2.832,2.8314,2.8314,2.83,2.8197,2.8172,2.8252,2.8251,2.825,2.825,2.825,2.8242,2.8216,2.8276,2.8297,2.8335,2.8373,2.8368,2.8411,2.8427,2.845,2.8432,2.8356,2.8348,2.834,2.8319,2.8432,2.8432,2.8432,2.8432,2.8304,2.83,2.8361,2.8396,2.843,2.8432,2.85,2.8514,2.8525,2.8535,2.8518,2.849,2.8482,2.8478,2.8467,2.8447,2.859,2.8591,2.8591,2.8375,2.8374,2.8433,2.8444,2.8473,2.8499,2.8562,2.8603,2.8609,2.8597,2.8543,2.8537,2.8491,2.8476,2.8462,2.8445,2.8409,0,0]}]]